Weather Roundup
Issued by NWS Springfield, MO

Home | Current Version | Previous Version | Text Only | Print | Product List | Glossary On
Versions: 1 2 3 4 5 6 7 8 9 10 11 12 13 14 15 16 17 18 19 20 21 22 23 24 25 26 27 28 29 30 31 32 33 34 35 36 37 38 39 40 41 42 43 44 45 46 47 48 49 50
000
NZUS99 KSGF 121907
HRRSGF

HOURLY WEATHER
NATIONAL WEATHER SERVICE SPRINGFIELD MO
100 PM CST FRI FEB 12 2016

......SGF CWA......

CITY           SKY/WX    TMP DP  RH WIND       PRES   REMARKS
SPRINGFIELD    SUNNY     43  22  43 N14G28    30.32F
JOPLIN         SUNNY     43  25  49 N18       30.38F
WEST PLAINS    SUNNY     47  23  38 N10G21    30.27F
ROLLA          LGT RAIN  37  23  56 NW15      30.30R WCI  28
OSAGE BEACH    MOSUNNY   39  19  45 NW8G21    30.35S WCI  34
BRANSON        MOSUNNY   46  25  42 NW16G22   30.31S

......SURROUNDING SGF CWA......

CITY           SKY/WX    TMP DP  RH WIND       PRES   REMARKS
CHANUTE        SUNNY     43  26  51 NE15      30.41F
PARSONS        CLOUDY    44  26  49 N15G22    30.41F
COFFEYVILLE    SUNNY     45  25  45 N18G25    30.40F
EMPORIA        SUNNY     40  24  53 N16G23    30.44S WCI  31
GROVE OK       SUNNY     48  28  46 N9G16     30.38S
ROGERS AR      SUNNY     46  26  45 N12G18    30.33F
SILOAM SPRINGS SUNNY     48  27  43 N13G22    30.34S
HARRISON AR    SUNNY     49  26  41 NW13G18   30.30S
NEAR YELLVILLE SUNNY     52  25  35 N13G18    30.28S

......KANSAS AND MISSOURI......

CITY           SKY/WX    TMP DP  RH WIND       PRES   REMARKS
KANSAS CTY INT MOSUNNY   34  16  47 N14G22    30.43S WCI  25
DOWNTOWN KC    SUNNY     38  17  42 N14G21    30.43S WCI  30
COLUMBIA       MOSUNNY   33  22  63 NW18G29   30.36S WCI  22
SEDALIA        MOSUNNY   37  21  52 NW15G26   30.39F WCI  28
ST JOSEPH      SUNNY     32  14  47 N17       30.48R WCI  21
ST LOUIS       CLOUDY    32  23  69 NW13      30.31R WCI  22
SPIRIT OF STL  CLOUDY    34  23  64 NW16G24   30.32R WCI  24
KIRKSVILLE     MOSUNNY   28  14  55 NW13G21   30.39S WCI  17
WICHITA        CLOUDY    40  26  57 N14       30.44S WCI  32
TOPEKA         CLOUDY    37  21  52 N18G25    30.46S WCI  27
OLATHE         MOSUNNY   38  21  50 NW14G23   30.41F WCI  30

......TENNESSEE......

CITY           SKY/WX    TMP DP  RH WIND       PRES   REMARKS
MEMPHIS        MOSUNNY   52  28  39 NW13      30.25F
NASHVILLE      MOSUNNY   44  26  49 N3        30.18F

......ARKANSAS.......

CITY           SKY/WX    TMP DP  RH WIND       PRES   REMARKS
FAYETTEVILLE   SUNNY     51  30  44 N12G21    30.32F
FT SMITH       SUNNY     61  29  29 W10       30.30F
LITTLE ROCK    MOSUNNY   59  29  31 N9        30.27F

......OKLAHOMA.......

CITY           SKY/WX    TMP DP  RH WIND       PRES   REMARKS
TULSA          PTSUNNY   50  30  46 N14       30.37F
PONCA CITY       N/A     47  29  49 MISG      30.40
MCALESTER      MOSUNNY   59  31  34 NE12G17   30.33F
OKLAHOMA CITY  MOSUNNY   57  34  41 N13       30.36S

......IOWA............

CITY           SKY/WX    TMP DP  RH WIND       PRES   REMARKS
DES MOINES     MOSUNNY   20   7  57 NW20      30.46R WCI   4
QUAD CITIES    SUNNY     25   7  46 NW20G36   30.29S WCI  11

......ILLINOIS........

CITY           SKY/WX    TMP DP  RH WIND       PRES   REMARKS
QUINCY         CLOUDY    24  15  68 NW18G26   30.34S WCI  10
CHICAGO        PTSUNNY   22   7  52 NW22      30.15S WCI   6



USA.gov is the U.S. government's official web portal to all federal, state and local government web resources and services.